{"data":{"norad_id":41793,"intl_designator":"2016-060A","name":"GSAT-18","alt_names":[],"object_type":"PAYLOAD","status":"ACTIVE","operator":null,"country":"IND","launch_date":"2016-10-05","launch_site_code":"FRGUI","launch_vehicle":null,"mission":null,"orbit_class":"UNKNOWN","rcs_meters":0.003,"size_class":null,"mass_kg":null,"dimensions":null,"purposes":["comms"],"wikipedia_slug":null,"has_3d_model":false,"image_url":null,"decayed_at":null,"tle_current":{"epoch":"2026-09-20T01:52:37.579872Z","epoch_age_seconds":62211,"freshness":"FRESH","line1":"1 41793U 16060A   26263.07821273 -.00000081  00000+0  00000+0 0  9994","line2":"2 41793   0.0174 116.4442 0002871   2.1308 342.5292  1.00271800 36489","mean_motion":1.002718,"eccentricity":0.0002871,"inclination_deg":0.0174,"raan_deg":116.4442,"arg_perigee_deg":2.1308,"mean_anomaly_deg":342.5292,"bstar":0,"rev_number":3648,"period_min":1436.0966891988,"perigee_km":35774.485262808,"apogee_km":35798.696249485,"semimajor_km":42164.727756147,"source":"CELESTRAK","updated_at":"2026-09-20T09:00:35.248103Z"}}}